TimeCDT,TemperatureF,Dew PointF,Humidity,Sea Level PressureIn,VisibilityMPH,Wind Direction,Wind SpeedMPH,Gust SpeedMPH,PrecipitationIn,Events,Conditions,WindDirDegrees,DateUTC
12:12 AM,69.8,59.0,68,29.93,10.0,South,9.2,-,N/A,Rain-Thunderstorm,Rain,170,2013-06-15 05:12:00
12:32 AM,66.2,60.8,83,29.92,10.0,South,12.7,18.4,0.03,Rain-Thunderstorm,Thunderstorms and Rain,180,2013-06-15 05:32:00
12:51 AM,66.2,62.6,88,29.94,10.0,SE,9.2,-,0.01,Rain-Thunderstorm,Thunderstorms and Rain,140,2013-06-15 05:51:00
1:12 AM,66.2,62.6,88,29.94,10.0,South,5.8,-,0.02,Rain-Thunderstorm,Light Thunderstorms and Rain,190,2013-06-15 06:12:00
1:32 AM,66.2,62.6,88,29.93,7.0,SSE,5.8,-,0.15,Rain-Thunderstorm,Light Thunderstorms and Rain,160,2013-06-15 06:32:00
1:51 AM,66.2,62.6,88,29.92,7.0,ESE,6.9,-,N/A,Thunderstorm,Overcast,120,2013-06-15 06:51:00
2:12 AM,66.2,62.6,88,29.92,7.0,SSE,10.4,-,N/A,,Overcast,150,2013-06-15 07:12:00
2:32 AM,66.2,62.6,88,29.92,10.0,SSE,11.5,-,N/A,,Overcast,160,2013-06-15 07:32:00
2:52 AM,66.2,62.6,88,29.91,10.0,South,9.2,-,N/A,Thunderstorm,Overcast,170,2013-06-15 07:52:00
3:12 AM,66.2,62.6,88,29.90,10.0,South,5.8,-,N/A,,Overcast,170,2013-06-15 08:12:00
3:31 AM,66.2,62.6,88,29.89,7.0,SSE,5.8,-,N/A,Thunderstorm,Overcast,160,2013-06-15 08:31:00
3:52 AM,66.2,62.6,88,29.89,7.0,SSE,4.6,-,N/A,Thunderstorm,Overcast,150,2013-06-15 08:52:00
4:11 AM,66.2,62.6,88,29.90,7.0,SE,4.6,-,N/A,,Overcast,140,2013-06-15 09:11:00
4:31 AM,66.2,62.6,88,29.90,7.0,ESE,3.5,-,N/A,,Overcast,120,2013-06-15 09:31:00
4:52 AM,66.2,62.6,88,29.90,7.0,SSE,6.9,-,N/A,,Mostly Cloudy,160,2013-06-15 09:52:00
5:11 AM,66.2,62.6,88,29.90,10.0,Calm,Calm,-,N/A,,Scattered Clouds,0,2013-06-15 10:11:00
5:32 AM,64.4,62.6,94,29.89,7.0,Calm,Calm,-,N/A,,Clear,0,2013-06-15 10:32:00
5:52 AM,64.4,62.6,94,29.90,5.0,Calm,Calm,-,N/A,,Clear,0,2013-06-15 10:52:00
6:11 AM,64.4,62.6,94,29.90,5.0,South,3.5,-,N/A,,Clear,190,2013-06-15 11:11:00
6:32 AM,64.4,62.6,94,29.90,4.0,SE,3.5,-,N/A,,Clear,140,2013-06-15 11:32:00
6:52 AM,64.4,62.6,94,29.90,5.0,SE,6.9,-,N/A,,Clear,130,2013-06-15 11:52:00
7:11 AM,66.2,62.6,88,29.92,7.0,South,4.6,-,N/A,,Clear,170,2013-06-15 12:11:00
7:32 AM,66.2,62.6,88,29.92,10.0,SSE,6.9,-,N/A,,Clear,160,2013-06-15 12:32:00
7:51 AM,66.2,62.6,88,29.92,10.0,SSE,9.2,-,N/A,,Clear,160,2013-06-15 12:51:00
8:11 AM,68.0,62.6,83,29.92,10.0,SSE,11.5,-,N/A,,Clear,150,2013-06-15 13:11:00
8:32 AM,69.8,62.6,78,29.93,10.0,SSE,11.5,-,N/A,,Scattered Clouds,160,2013-06-15 13:32:00
8:51 AM,69.8,62.6,78,29.93,10.0,SSE,11.5,-,N/A,,Scattered Clouds,150,2013-06-15 13:51:00
9:05 AM,69.8,62.6,78,29.93,10.0,SSE,9.2,-,N/A,,Scattered Clouds,150,2013-06-15 14:05:00
9:21 AM,71.6,64.4,78,29.93,10.0,SSE,10.4,-,N/A,,Clear,160,2013-06-15 14:21:00
9:38 AM,71.6,64.4,78,29.93,10.0,South,10.4,-,N/A,,Scattered Clouds,170,2013-06-15 14:38:00
9:47 AM,71.6,64.4,78,29.93,7.0,South,8.1,-,N/A,,Clear,170,2013-06-15 14:47:00
10:01 AM,71.6,64.4,78,-9999,10.0,South,6.9,-,N/A,,Clear,190,2013-06-15 15:01:00
10:22 AM,73.4,64.4,73,29.91,10.0,South,6.9,-,N/A,,Clear,170,2013-06-15 15:22:00
10:32 AM,73.4,64.4,73,29.92,10.0,South,5.8,-,N/A,,Scattered Clouds,170,2013-06-15 15:32:00
10:51 AM,73.4,64.4,73,29.92,10.0,South,5.8,-,N/A,,Scattered Clouds,170,2013-06-15 15:51:00
11:12 AM,75.2,64.4,69,290.31,10.0,SSW,6.9,-,N/A,,Mostly Cloudy,200,2013-06-15 16:12:00
11:32 AM,73.4,64.4,73,29.94,10.0,SSW,4.6,-,N/A,,Scattered Clouds,210,2013-06-15 16:32:00
11:51 AM,73.4,64.4,73,29.98,10.0,SSW,10.4,-,N/A,,Unknown,200,2013-06-15 16:51:00
12:07 PM,73.4,64.4,73,29.98,10.0,SW,8.1,-,N/A,,Mostly Cloudy,230,2013-06-15 17:07:00
12:36 PM,71.6,64.4,78,29.95,10.0,SW,5.8,-,N/A,,Clear,220,2013-06-15 17:36:00
12:59 PM,71.6,64.4,78,29.95,10.0,SW,3.5,-,N/A,,Scattered Clouds,220,2013-06-15 17:59:00
1:14 PM,71.6,66.2,83,29.96,10.0,SW,5.8,-,N/A,,Scattered Clouds,230,2013-06-15 18:14:00
1:21 PM,71.6,66.2,83,29.97,7.0,SW,6.9,-,N/A,,Mostly Cloudy,230,2013-06-15 18:21:00
1:41 PM,71.6,66.2,83,29.96,10.0,South,6.9,-,N/A,,Overcast,190,2013-06-15 18:41:00
2:09 PM,68.0,64.4,88,29.83,10.0,ESE,12.7,27.6,N/A,,Mostly Cloudy,110,2013-06-15 19:09:00
2:32 PM,68.0,62.6,83,29.87,10.0,SE,6.9,-,N/A,,Clear,140,2013-06-15 19:32:00
2:47 PM,66.2,62.6,88,29.87,10.0,ENE,3.5,-,N/A,,Mostly Cloudy,70,2013-06-15 19:47:00
3:13 PM,68.0,64.4,88,29.88,10.0,NNW,8.1,-,N/A,,Mostly Cloudy,330,2013-06-15 20:13:00
3:21 PM,69.8,64.4,83,29.89,10.0,NNW,9.2,-,N/A,,Mostly Cloudy,330,2013-06-15 20:21:00
3:41 PM,71.6,64.4,78,29.87,10.0,NNW,9.2,-,N/A,,Mostly Cloudy,340,2013-06-15 20:41:00
4:01 PM,75.2,64.4,69,29.86,7.0,North,10.4,16.1,N/A,,Scattered Clouds,350,2013-06-15 21:01:00
4:21 PM,77.0,64.4,65,29.85,10.0,NNW,5.8,-,N/A,,Clear,330,2013-06-15 21:21:00
4:41 PM,78.8,60.8,54,29.84,10.0,NNW,2.3,-,N/A,,Clear,330,2013-06-15 21:41:00
5:01 PM,78.8,60.8,54,29.85,10.0,WNW,3.5,-,N/A,,Clear,290,2013-06-15 22:01:00
5:21 PM,78.8,60.8,54,29.85,10.0,SW,5.8,-,N/A,,Clear,220,2013-06-15 22:21:00
5:41 PM,78.8,60.8,54,29.85,10.0,SSW,5.8,-,N/A,,Clear,210,2013-06-15 22:41:00
6:01 PM,78.8,62.6,57,29.87,10.0,WSW,5.8,-,N/A,,Clear,240,2013-06-15 23:01:00
6:21 PM,78.8,60.8,54,-9999,10.0,SW,5.8,-,N/A,,Clear,230,2013-06-15 23:21:00
6:41 PM,78.8,62.6,57,29.88,10.0,WNW,5.8,-,N/A,,Scattered Clouds,290,2013-06-15 23:41:00
7:01 PM,78.8,62.6,57,29.88,10.0,WNW,5.8,-,N/A,,Scattered Clouds,290,2013-06-16 00:01:00
7:21 PM,78.8,60.8,54,29.88,10.0,NNW,3.5,-,N/A,,Clear,330,2013-06-16 00:21:00
7:41 PM,77.0,62.6,61,29.88,10.0,WNW,4.6,-,N/A,,Clear,290,2013-06-16 00:41:00
8:01 PM,77.0,62.6,61,29.88,10.0,West,2.3,-,N/A,,Clear,280,2013-06-16 01:01:00
8:21 PM,75.2,64.4,69,29.89,10.0,Calm,Calm,-,N/A,,Clear,280,2013-06-16 01:21:00
8:41 PM,73.4,62.6,69,29.89,10.0,Calm,Calm,-,N/A,,Clear,270,2013-06-16 01:41:00
9:01 PM,69.8,62.6,78,29.89,10.0,West,1.2,-,N/A,,Clear,260,2013-06-16 02:01:00
9:21 PM,69.8,62.6,78,29.90,10.0,NNW,1.2,-,N/A,,Clear,330,2013-06-16 02:21:00
9:41 PM,68.0,64.4,88,29.91,10.0,Calm,Calm,-,N/A,,Clear,270,2013-06-16 02:41:00
10:01 PM,66.2,62.6,88,29.91,10.0,WNW,1.2,-,N/A,,Clear,300,2013-06-16 03:01:00
10:21 PM,66.2,62.6,88,29.91,10.0,NW,1.2,-,N/A,,Clear,320,2013-06-16 03:21:00
10:41 PM,66.2,62.6,88,29.91,10.0,WNW,1.2,-,N/A,,Clear,300,2013-06-16 03:41:00
11:01 PM,64.4,60.8,88,29.92,10.0,WNW,1.2,-,N/A,,Clear,290,2013-06-16 04:01:00
11:21 PM,64.4,62.6,94,29.91,10.0,NW,3.5,-,N/A,,Clear,310,2013-06-16 04:21:00
11:41 PM,64.4,60.8,88,29.91,10.0,NW,2.3,-,N/A,,Clear,320,2013-06-16 04:41:00